TimeMDT,TemperatureF,Dew PointF,Humidity,Sea Level PressureIn,VisibilityMPH,Wind Direction,Wind SpeedMPH,Gust SpeedMPH,PrecipitationIn,Events,Conditions,WindDirDegrees,DateUTC
12:23 AM,35.6,33.8,93,29.89,0.2,Calm,Calm,-,N/A,Fog,Fog,0,2012-11-02 06:23:00
12:32 AM,35.6,33.8,93,29.89,0.8,Calm,Calm,-,N/A,,Overcast,0,2012-11-02 06:32:00
12:51 AM,35.6,35.6,100,29.90,1.5,West,5.8,-,N/A,,Overcast,280,2012-11-02 06:51:00
12:53 AM,35.1,35.1,100,29.96,2.5,WNW,5.8,-,N/A,,Overcast,290,2012-11-02 06:53:00
1:01 AM,35.6,35.6,100,29.91,6.0,WNW,6.9,-,N/A,,Overcast,290,2012-11-02 07:01:00
1:17 AM,35.6,35.6,100,29.91,5.0,WNW,4.6,-,N/A,,Overcast,300,2012-11-02 07:17:00
1:34 AM,35.6,35.6,100,29.92,1.8,WNW,5.8,-,N/A,,Overcast,300,2012-11-02 07:34:00
1:44 AM,37.4,35.6,93,29.92,3.0,WNW,6.9,-,N/A,,Overcast,300,2012-11-02 07:44:00
1:53 AM,37.0,36.0,96,29.98,7.0,NW,13.8,17.3,N/A,,Overcast,310,2012-11-02 07:53:00
2:15 AM,35.6,35.6,100,29.93,10.0,NW,11.5,-,N/A,,Overcast,310,2012-11-02 08:15:00
2:53 AM,36.0,35.1,97,30.00,10.0,West,8.1,-,N/A,,Overcast,280,2012-11-02 08:53:00
3:53 AM,37.0,34.0,89,30.01,10.0,WNW,10.4,-,N/A,,Overcast,290,2012-11-02 09:53:00
4:53 AM,36.0,34.0,93,30.02,10.0,WNW,8.1,-,N/A,,Overcast,290,2012-11-02 10:53:00
5:53 AM,36.0,34.0,93,30.04,10.0,West,11.5,-,0.00,,Overcast,260,2012-11-02 11:53:00
6:05 AM,35.6,33.8,93,29.99,10.0,West,9.2,-,N/A,,Overcast,270,2012-11-02 12:05:00
6:24 AM,35.6,33.8,93,29.99,10.0,West,9.2,-,N/A,,Overcast,260,2012-11-02 12:24:00
6:42 AM,35.6,33.8,93,30.00,10.0,West,8.1,-,N/A,,Overcast,260,2012-11-02 12:42:00
6:53 AM,35.1,33.1,92,30.06,10.0,West,5.8,-,N/A,,Overcast,260,2012-11-02 12:53:00
7:04 AM,35.6,33.8,93,30.00,9.0,WSW,6.9,-,0.00,Rain,Light Rain,250,2012-11-02 13:04:00
7:17 AM,33.8,33.8,100,30.01,7.0,West,6.9,-,N/A,Snow,Light Snow,260,2012-11-02 13:17:00
7:23 AM,33.8,32.0,93,30.02,6.0,West,6.9,-,0.01,Snow,Light Snow,270,2012-11-02 13:23:00
7:44 AM,33.8,32.0,93,30.03,2.5,West,4.6,-,0.03,Snow,Light Snow,270,2012-11-02 13:44:00
7:53 AM,33.1,32.0,96,30.09,4.0,WSW,4.6,-,0.04,Snow,Light Snow,250,2012-11-02 13:53:00
8:06 AM,33.8,32.0,93,30.03,4.0,WSW,4.6,-,0.00,Snow,Light Snow,250,2012-11-02 14:06:00
8:53 AM,34.0,32.0,92,30.12,10.0,West,5.8,-,0.00,,Overcast,260,2012-11-02 14:53:00
9:53 AM,35.1,32.0,89,30.13,10.0,WNW,6.9,-,0.00,,Overcast,300,2012-11-02 15:53:00
10:21 AM,35.6,32.0,87,30.08,10.0,WNW,6.9,-,N/A,,Overcast,300,2012-11-02 16:21:00
10:39 AM,35.6,32.0,87,30.08,10.0,West,5.8,-,N/A,,Overcast,270,2012-11-02 16:39:00
10:53 AM,36.0,32.0,86,30.15,10.0,West,9.2,-,N/A,,Overcast,280,2012-11-02 16:53:00
11:38 AM,35.6,33.8,93,30.10,10.0,West,9.2,-,N/A,,Overcast,270,2012-11-02 17:38:00
11:53 AM,36.0,33.1,89,30.18,10.0,West,9.2,-,N/A,,Overcast,270,2012-11-02 17:53:00
12:53 PM,36.0,34.0,93,30.18,10.0,WNW,8.1,-,0.00,Rain,Light Rain,290,2012-11-02 18:53:00
1:53 PM,39.9,35.1,83,30.16,10.0,WNW,6.9,-,0.01,,Overcast,300,2012-11-02 19:53:00
2:49 PM,39.2,33.8,81,30.09,10.0,West,5.8,-,N/A,,Overcast,270,2012-11-02 20:49:00
2:53 PM,39.9,34.0,79,30.15,10.0,West,5.8,-,N/A,,Overcast,280,2012-11-02 20:53:00
3:04 PM,39.2,33.8,81,30.09,10.0,WNW,5.8,-,N/A,,Overcast,290,2012-11-02 21:04:00
3:53 PM,39.9,34.0,79,30.15,10.0,NNW,8.1,-,N/A,,Overcast,330,2012-11-02 21:53:00
4:53 PM,39.0,34.0,82,30.16,10.0,NNW,5.8,-,N/A,,Overcast,330,2012-11-02 22:53:00
5:53 PM,39.0,34.0,82,30.17,10.0,WNW,3.5,-,N/A,,Overcast,300,2012-11-02 23:53:00
6:53 PM,37.9,34.0,86,30.18,10.0,North,3.5,-,N/A,,Overcast,10,2012-11-03 00:53:00
7:40 PM,37.4,33.8,87,30.12,10.0,WSW,3.5,-,N/A,,Overcast,250,2012-11-03 01:40:00
7:53 PM,37.0,34.0,89,30.19,10.0,Calm,Calm,-,N/A,,Overcast,0,2012-11-03 01:53:00
8:23 PM,37.4,33.8,87,30.12,10.0,Calm,Calm,-,N/A,,Overcast,0,2012-11-03 02:23:00
8:53 PM,37.0,34.0,89,30.19,10.0,Calm,Calm,-,N/A,,Overcast,0,2012-11-03 02:53:00
9:41 PM,37.4,33.8,87,30.12,10.0,Calm,Calm,-,N/A,,Overcast,0,2012-11-03 03:41:00
9:53 PM,36.0,34.0,93,30.19,9.0,Calm,Calm,-,N/A,,Overcast,0,2012-11-03 03:53:00
10:53 PM,35.1,33.1,92,30.19,8.0,Calm,Calm,-,N/A,,Overcast,0,2012-11-03 04:53:00
11:24 PM,33.8,33.8,100,30.12,7.0,Calm,Calm,-,N/A,,Overcast,0,2012-11-03 05:24:00
11:53 PM,35.1,33.1,92,30.19,6.0,Calm,Calm,-,N/A,,Overcast,0,2012-11-03 05:53:00